IPM 2 & BREEZE-M R/B (47242 NORAD) Tracking and Keplerian Element Data

This shows tracking and keplerian element data for the satellite.

Feedback or suggestion? Click here.




ElementValue
Catalog47242
NameIPM 2 & BREEZE-M R/B
Epoch Orbit46
Epoch Day20.48822376
Epoch Year2021
RAAN146.3431
Inclination0.0999
Eccentricity0.0088979
Argument of Perigee174.9125
Mean Anonmoly38.0833
Mean Motion0.95297051
Decay Rate-5.2E-07
L11 47242U 20097A 21020.48822376 -.00000052 00000-0 00000-0 0 9990
L22 47242 0.0999 146.3431 0088979 174.9125 38.0833 0.95297051 463

Live tracking and technical data element details for IPM 2 & BREEZE-M R/B (NORAD 47242). IPM 2 & BREEZE-M R/B can be tracked NOW for your location showing map with azimuth and elevation plus other details from your city location.

Track the satellite on the map from your city or location and see movement details for azimuth, elevation, latitude, longitude, range, height, and movement on the map or in text.







IsCatalogInMostPopularTable: catalog: 47242, numindb: 13
Update: records affected: 1



GetName: 47242 IPM 2 & BREEZE-M R/B

Hit Count: updated at: Sat, 23 Jan 2021 16:51:39 GMT